This is the latest recevied weather packets stored in our database for station/object AB0TJ. If no packets are shown the sender has not sent any weather packets the latest 10 day(s).
| Time | Temp. | Humidity | Pressure | Rain* | Wind** | Luminosity | Snow |
|---|---|---|---|---|---|---|---|
| 1777464773 | 5° C | 71% | 1018.4 hPa | 0 mm | - | 1 W/m² | - |
| 1777464259 | 5° C | 71% | 1018.3 hPa | 0 mm | - | 0 W/m² | - |
| 1777463724 | 5° C | 71% | 1018.5 hPa | 0 mm | - | 0 W/m² | - |
| 1777463144 | 5° C | 70% | 1018.3 hPa | 0 mm | - | 0 W/m² | - |
| 1777462599 | 5.56° C | 69% | 1018.6 hPa | 0 mm | - | 0 W/m² | - |
| 1777462049 | 5.56° C | 69% | 1018.3 hPa | 0 mm | - | 0 W/m² | - |
| 1777461549 | 5.56° C | 68% | 1018.4 hPa | 0 mm | - | 0 W/m² | - |
| 1777460998 | 5° C | 69% | 1018.5 hPa | 0 mm | - | 0 W/m² | - |
| 1777460424 | 5° C | 68% | 1017.8 hPa | 0 mm | - | 0 W/m² | - |
| 1777459839 | 5° C | 68% | 1018.2 hPa | 0 mm | - | 0 W/m² | - |
| 1777459304 | 5° C | 68% | 1017.9 hPa | 0 mm | - | 0 W/m² | - |
| 1777458764 | 5.56° C | 67% | 1018.1 hPa | 0 mm | - | 0 W/m² | - |
| 1777458200 | 5.56° C | 66% | 1017.9 hPa | 0 mm | - | 0 W/m² | - |
| 1777457609 | 5.56° C | 65% | 1017.8 hPa | 0 mm | - | 0 W/m² | - |
| 1777457009 | 6.11° C | 64% | 1017.6 hPa | 0 mm | - | 0 W/m² | - |
| 1777456530 | 6.11° C | 62% | 1017.5 hPa | 0 mm | - | 0 W/m² | - |
| 1777455939 | 6.67° C | 61% | 1017.7 hPa | 0 mm | - | 0 W/m² | - |
| 1777455419 | 6.67° C | 59% | 1017.5 hPa | 0 mm | - | 0 W/m² | - |
| 1777454824 | 7.22° C | 59% | 1017.4 hPa | 0 mm | - | 0 W/m² | - |
| 1777454264 | 7.22° C | 56% | 1017.7 hPa | 0 mm | - | 0 W/m² | - |
| 1777453674 | 7.78° C | 54% | 1017.6 hPa | 0 mm | - | 0 W/m² | - |
| 1777453124 | 8.89° C | 52% | 1018 hPa | 0 mm | - | 0 W/m² | - |
| 1777452632 | 9.44° C | 51% | 1017.8 hPa | 0 mm | - | 0 W/m² | - |
| 1777452093 | 10° C | 48% | 1017.7 hPa | 0 mm | - | 0 W/m² | - |
| 1777451549 | 10.56° C | 44% | 1018.2 hPa | 0 mm | - | 0 W/m² | - |
* Rain latest hour (hover to see other rain measurements)
** Current wind speed in m/s (hover to see current wind gust speed)